Flag for U.S.A. Weather past 2 weeks in Cincinnati, Ohio, U.S.A.

Now
14 °F

Overcast.


Feels Like: 6 °F
Forecast: 6 / 29 °F
Wind: 5 mph from Northeast

Location: Cincinnati Municipal Airport Lunken Field

Current Time: Feb 28, 2015 at 10:02:23 AM

Latest Report: Feb 28, 2015 at 8:53 AM


Visibility: 10 mi

Pressure: 30.80 "Hg

Humidity: 58%

Dew point: 2 °F

Location of CincinnatiLocation

Historic Weather in Cincinnati — Graph

°F

Cincinnati temperature yesterday

Maximum temperature yesterday: 23 °F (at 2:53 PM)
Minimum temperature yesterday: 7 °F (at 12:53 AM)
Average temperature yesterday: 15 °F

Past Weeks' High & Low Weather Summary

 TemperatureHumidityPressure
High36 °F (Feb 25, 3:53 PM)100% (Feb 17, 9:53 AM)30.80 "Hg (Feb 17, 9:53 AM)
Low-14 °F (Feb 20, 4:53 AM)28% (Feb 15, 1:53 PM)29.80 "Hg (Feb 14, 10:53 AM)
Average16 °F65%30.25 "Hg
* Reported Feb 13 8:53 AM — Feb 28 8:53 AM, Cincinnati, Weather by CustomWeather, © 2015

Note: Actual official high and low records may vary slightly from our data, if they occured in-between our weather recording intervals... More about our weather records

Advertising

Cincinnati weather history for previous 24 hours

 ConditionsComfort  
Time TempWeatherWind HumidityBarometerVisibility
8:53 AM
Sat, Feb 28
14 °FOvercast.5 mph58%30.80 "Hg10 mi
7:53 AM12 °FOvercast.6 mph61%30.78 "Hg10 mi
6:53 AM10 °FPassing clouds.5 mph67%30.77 "Hg10 mi
5:53 AM9 °FClear.5 mph66%30.75 "Hg10 mi
4:53 AM7 °FClear.No wind76%30.75 "Hg10 mi
3:53 AM9 °FClear.No wind70%30.74 "Hg10 mi
2:53 AM7 °FClear.3 mph79%30.74 "Hg10 mi
1:53 AM8 °FClear.No wind72%30.74 "Hg10 mi
12:53 AM9 °FClear.No wind76%30.74 "Hg10 mi
11:53 PM
Fri, Feb 27
12 °FClear.No wind70%30.73 "Hg10 mi
10:53 PM14 °FClear.5 mph56%30.73 "Hg10 mi
9:53 PM14 °FClear.5 mph61%30.72 "Hg10 mi
8:53 PM14 °FClear.No wind64%30.71 "Hg10 mi
7:53 PM15 °FClear.3 mph53%30.68 "Hg10 mi
6:53 PM17 °FClear.5 mph51%30.66 "Hg10 mi
5:53 PM20 °FSunny.5 mph41%30.66 "Hg10 mi
4:53 PM21 °FSunny.5 mph41%30.64 "Hg10 mi
3:53 PM22 °FPassing clouds.5 mph40%30.65 "Hg10 mi
2:53 PM23 °FScattered clouds.6 mph40%30.63 "Hg10 mi
1:53 PM22 °FLight snow. Scattered clouds.10 mph42%30.64 "Hg10 mi
12:53 PM19 °FPartly sunny.6 mph45%30.66 "Hg10 mi
11:53 AM19 °FSunny.5 mph45%30.66 "Hg10 mi
10:53 AM17 °FSunny.5 mph49%30.64 "Hg10 mi
Weather by CustomWeather, © 2015

See weather overviewHow to use our weather pages